K3IR Weather Reports


Display with metric or nautical units.
time (UTC)temp
F
wind
direction
speed
MPH
gust
MPH
rain 1hr
in
rain 24hr
in
rain mn
in
humidity
%
barometer
mb
20260504081542 45 0.0 0.0 0.00 0.00 0.00 64 1014.4
20260504044543 49 0.0 0.0 0.00 0.00 0.00 58 1014.5
20260504043036 48 0.0 0.0 0.00 0.00 0.00 58 1014.4
20260504041541 48 0.0 0.0 0.00 0.00 0.00 59 1014.4
20260504040100 48 0.0 0.0 0.00 0.00 0.00 60 1014.2
20260504034606 48 0.0 0.0 0.00 0.00 0.00 60 1014.4
20260504033040 48 0.0 0.0 0.00 0.00 0.00 59 1014.2
20260504031540 48 0.0 0.0 0.00 0.00 0.00 58 1014.1
20260504030042 49 0.0 0.0 0.00 0.00 0.00 56 1014.1
20260504024536 49 0.0 0.0 0.00 0.00 0.00 56 1014.0
20260504023043 49 0.0 0.0 0.00 0.00 0.00 56 1014.1
20260504021544 49 0.0 0.0 0.00 0.00 0.00 55 1014.2
20260504020041 49 0.0 0.0 0.00 0.00 0.00 54 1014.2
20260504014536 51 0.0 0.0 0.00 0.00 0.00 53 1014.0
20260504013046 51 0.0 0.0 0.00 0.00 0.00 51 1014.0
20260504011544 52 0.0 0.0 0.00 0.00 0.00 49 1013.7
20260504010042 52 0.0 0.0 0.00 0.00 0.00 47 1013.8
20260504004540 54 0.0 0.0 0.00 0.00 0.00 47 1013.7
20260504003040 54 0.0 0.0 0.00 0.00 0.00 45 1013.6
20260504001535 55 0.0 0.0 0.00 0.00 0.00 44 1013.3
20260504000044 56 0.0 0.0 0.00 0.00 0.00 43 1013.3
20260503234543 57 0.0 0.0 0.00 0.00 0.00 42 1013.1
20260503233041 57 0.0 0.0 0.00 0.00 0.00 42 1013.0
20260503231540 58 0.0 0.0 0.00 0.00 0.00 40 1013.0
20260503230041 58 0.0 0.0 0.00 0.00 0.00 42 1013.0
20260503224536 58 0.0 0.0 0.00 0.00 0.00 39 1012.9
20260503223043 58 0.0 0.0 0.00 0.00 0.00 39 1012.9
20260503221545 58 0.0 0.0 0.00 0.00 0.00 39 1012.9
20260503220043 59 0.0 0.0 0.00 0.00 0.00 39 1013.0
20260503214541 59 0.0 0.0 0.00 0.00 0.00 40 1012.9
20260503213045 58 0.0 0.0 0.00 0.00 0.00 42 1012.7
20260503211545 58 0.0 0.0 0.00 0.00 0.00 42 1012.7
20260503210036 59 0.0 0.0 0.00 0.00 0.00 39 1012.7
20260503204552 58 0.0 0.0 0.00 0.00 0.00 40 1012.8
20260503203047 57 0.0 0.0 0.00 0.00 0.00 41 1012.5
20260503201542 58 0.0 0.0 0.00 0.00 0.00 39 1012.9
20260503200042 57 0.0 0.0 0.00 0.00 0.00 41 1013.2
20260503194545 56 0.0 0.0 0.00 0.00 0.00 42 1013.4
20260503193052 57 0.0 0.0 0.00 0.00 0.00 41 1013.5
20260503191534 56 0.0 0.0 0.00 0.00 0.00 42 1013.8
20260503190053 56 0.0 0.0 0.00 0.00 0.00 44 1013.9
20260503184541 56 0.0 0.0 0.00 0.00 0.00 46 1013.9
20260503183055 55 0.0 0.0 0.00 0.00 0.00 41 1014.0
20260503181540 53 0.0 0.0 0.00 0.00 0.00 45 1014.2
20260503180049 54 0.0 0.0 0.00 0.00 0.00 46 1014.2
20260503174542 54 0.0 0.0 0.00 0.00 0.00 47 1014.3
20260503173103 54 0.0 0.0 0.00 0.00 0.00 45 1014.2
20260503171549 53 0.0 0.0 0.00 0.00 0.00 50 1014.4